This is the latest recevied weather packets stored in our database for station/object KB1JL-13. If no packets are shown the sender has not sent any weather packets the latest 10 day(s).
| Time | Temp. | Humidity | Pressure | Rain* | Wind** | Luminosity | Snow |
|---|---|---|---|---|---|---|---|
| 1778098911 | 13.89° C | 99% | 1019.2 hPa | 0 mm | - | 42 W/m² | - |
| 1778098609 | 13.89° C | 99% | 1019.2 hPa | 1.78 mm | - | 31 W/m² | - |
| 1778098305 | 13.89° C | 99% | 1018.9 hPa | 1.78 mm | - | 36 W/m² | - |
| 1778098002 | 13.89° C | 99% | 1018.9 hPa | 0 mm | - | 63 W/m² | - |
| 1778097699 | 13.89° C | 99% | 1019.2 hPa | 0 mm | - | 40 W/m² | - |
| 1778097396 | 13.89° C | 99% | 1018.9 hPa | 0 mm | - | 32 W/m² | - |
| 1778097092 | 13.89° C | 99% | 1018.9 hPa | 0 mm | - | 35 W/m² | - |
| 1778096790 | 13.89° C | 99% | 1019.2 hPa | 0 mm | - | 55 W/m² | - |
| 1778096486 | 13.89° C | 99% | 1019.2 hPa | 0 mm | - | 95 W/m² | - |
| 1778096184 | 13.89° C | 99% | 1019.2 hPa | 0 mm | - | 90 W/m² | - |
| 1778095881 | 13.89° C | 99% | 1019.2 hPa | 0 mm | - | 78 W/m² | - |
| 1778095577 | 13.89° C | 99% | 1019.2 hPa | 0 mm | - | 90 W/m² | - |
| 1778095273 | 13.89° C | 99% | 1019.2 hPa | 0 mm | - | 122 W/m² | - |
| 1778094970 | 13.89° C | 99% | 1019.2 hPa | 0 mm | - | 141 W/m² | - |
| 1778094666 | 13.89° C | 99% | 1019.5 hPa | 0 mm | - | 163 W/m² | - |
| 1778094364 | 14.44° C | 99% | 1019.5 hPa | 0 mm | - | 150 W/m² | - |
| 1778094060 | 13.89° C | 99% | 1019.5 hPa | 0 mm | - | 157 W/m² | - |
| 1778093757 | 13.89° C | 99% | 1019.5 hPa | 0 mm | - | 169 W/m² | - |
| 1778093453 | 13.89° C | 99% | 1019.9 hPa | 0 mm | - | 134 W/m² | - |
| 1778093151 | 13.89° C | 99% | 1019.5 hPa | 0 mm | - | 167 W/m² | - |
| 1778092849 | 13.89° C | 99% | 1019.5 hPa | 0 mm | - | 192 W/m² | - |
| 1778092544 | 13.89° C | 99% | 1019.9 hPa | 0 mm | - | 148 W/m² | - |
| 1778092241 | 13.89° C | 99% | 1019.9 hPa | 1.78 mm | - | 191 W/m² | - |
| 1778091938 | 13.89° C | 99% | 1020.5 hPa | 3.05 mm | - | 132 W/m² | - |
| 1778091635 | 13.89° C | 99% | 1020.2 hPa | 3.05 mm | - | 80 W/m² | - |
* Rain latest hour (hover to see other rain measurements)
** Current wind speed in m/s (hover to see current wind gust speed)